{"data":{"norad_id":66241,"intl_designator":"2025-245H","name":"STARLINK-35497","alt_names":[],"object_type":"PAYLOAD","status":"ACTIVE","operator":null,"country":"US","launch_date":"2025-10-29","launch_site_code":"AFETR","launch_vehicle":null,"mission":null,"orbit_class":"UNKNOWN","rcs_meters":null,"size_class":null,"mass_kg":null,"dimensions":null,"purposes":["comms"],"wikipedia_slug":null,"has_3d_model":false,"image_url":null,"decayed_at":null,"tle_current":{"epoch":"2026-05-25T03:08:58.164864Z","epoch_age_seconds":64049,"freshness":"FRESH","line1":"1 66241U 25245H   26145.13122876  .00021042  00000+0  72044-3 0  9993","line2":"2 66241  53.1603 288.5751 0001202  90.5387 269.5752 15.30205504 32918","mean_motion":15.30205504,"eccentricity":0.0001202,"inclination_deg":53.1603,"raan_deg":288.5751,"arg_perigee_deg":90.5387,"mean_anomaly_deg":269.5752,"bstar":0.00072044,"rev_number":3291,"period_min":94.105007218691,"perigee_km":474.3748645733,"apogee_km":476.02240646007,"semimajor_km":6853.3356355167,"source":"CELESTRAK","updated_at":"2026-05-25T13:38:21.134656Z"}}}